Home   Weather   Oklahoma City   Past weeks
Flag for USA

Past Weather in Oklahoma City, Oklahoma, USA — Yesterday and Last 2 Weeks

Now
62 °F

Sunny.


Feels Like: 62 °F
Forecast: 69 / 48 °F
Wind: 17 mph from Northwest

Location: Will Rogers World Airport

Current Time: Oct 21, 2019 at 1:20:16 pm

Latest Report: Oct 21, 2019 at 11:52 am


Visibility: 10 mi

Pressure: 29.88 "Hg

Humidity: 30%

Dew Point: 30 °F

Location of Oklahoma CityLocation

Past Weather in Oklahoma City — Graph

°F

Oklahoma City Temperature Yesterday

Maximum temperature yesterday: 82 °F (at 2:52 pm)
Minimum temperature yesterday: 43 °F (at 7:52 am)
Average temperature yesterday: 63 °F

High & Low Weather Summary for the Past Weeks

 TemperatureHumidityPressure
High82 °F (Oct 20, 2:52 pm)100% (Oct 15, 12:03 am)30.36 "Hg (Oct 15, 12:03 am)
Low30 °F (Oct 12, 5:52 am)19% (Oct 12, 1:52 pm)29.47 "Hg (Oct 20, 8:52 pm)
Average59 °F63%29.95 "Hg
* Reported Oct 6 11:13 am — Oct 21 11:52 am, Oklahoma City. Weather by CustomWeather, © 2019

Note: Actual official high and low records may vary slightly from our data, if they occured in-between our weather recording intervals... More about our weather records

Advertising

Oklahoma City Weather History for the Previous 24 Hours

Scroll right to see more
 ConditionsComfort  
Time TempWeatherWind HumidityBarometerVisibility
11:52 am
Mon, Oct 21
62 °FSunny.17 mph30%29.88 "Hg10 mi
10:52 am59 °FSunny.15 mph35%29.88 "Hg10 mi
9:52 am56 °FSunny.9 mph40%29.88 "Hg10 mi
8:52 am51 °FSunny.9 mph50%29.86 "Hg10 mi
7:52 am38 °FSunny.5 mph76%29.84 "Hg10 mi
6:52 am45 °FPassing clouds.8 mph60%29.80 "Hg10 mi
5:52 am49 °FPassing clouds.10 mph50%29.76 "Hg10 mi
4:52 am47 °FPassing clouds.5 mph54%29.75 "Hg10 mi
3:52 am51 °FPassing clouds.10 mph44%29.75 "Hg10 mi
2:52 am54 °FPassing clouds.13 mph38%29.70 "Hg10 mi
1:52 am57 °FPassing clouds.25 mph33%29.65 "Hg10 mi
12:52 am54 °FPassing clouds.9 mph51%29.60 "Hg10 mi
11:52 pm
Sun, Oct 20
58 °FPassing clouds.14 mph43%29.61 "Hg10 mi
10:52 pm60 °FPassing clouds.18 mph49%29.62 "Hg10 mi
10:14 pm61 °FPassing clouds.23 mph59%29.61 "Hg10 mi
9:52 pm61 °FThunderstorms. Partly cloudy.24 mph70%29.54 "Hg10 mi
9:27 pm72 °FThunderstorms. Overcast.15 mph71%29.52 "Hg10 mi
8:52 pm71 °FThunderstorms. Partly cloudy.8 mph71%29.47 "Hg10 mi
8:44 pm72 °FThundershowers. Passing clouds.8 mph66%29.51 "Hg10 mi
7:52 pm74 °FPassing clouds.12 mph57%29.51 "Hg10 mi
6:52 pm75 °FPartly cloudy.12 mph50%29.54 "Hg10 mi
5:52 pm78 °FBroken clouds.14 mph43%29.54 "Hg10 mi
4:52 pm81 °FBroken clouds.20 mph37%29.54 "Hg10 mi
3:52 pm82 °FScattered clouds.22 mph34%29.56 "Hg10 mi
2:52 pm82 °FPassing clouds.21 mph33%29.59 "Hg10 mi
1:52 pm79 °FPassing clouds.16 mph36%29.64 "Hg10 mi
Weather by CustomWeather, © 2019

See weather overview